Retour au catalogue

NOAA 16 DEB

ActifSSO
NORAD 41505·DEBRIS·🇺🇸 United States

Lancé Sep 21, 2000 depuis Vandenberg Space Force Base

Loading…

Prochains Passages (prochaines 24 heures)

TLE

FraisSource: Space-Track

Époque: Sep 13, 2026, 05:03 UTC

1 41505U 00055MD  26256.21077397  .00004559  00000-0  13379-2 0  9990
2 41505  98.8509  31.6652 0032980 197.1156 162.8924 14.44010081550534

Suivez NOAA 16 DEB en temps réel avec AllMySat

Download on the App Store